Location: Marsån
(66.4167°N, 22.2833°E)
Time: 11:46:14
(UTC+00:00)

Meteor 1-20 Rocket - Pass Details

Date: 24 February 2024
Orbit: 818 x 891 km, 81.2° (Epoch: 15 April)

Event Time Altitude Azimuth Distance (km) Brightness Sun altitude
Exits shadow 18:40:50 22° 163° (SSE) 1,812 5.6 -20.0°
Maximum altitude 18:44:19 51° 98° (E) 1,098 4.4 -20.4°
Drops below altitude 10° 18:49:48 10° 24° (NNE) 2,513 6.7 -20.9°
Sets 18:52:16 0° 20° (NNE) 3,441 7.5 -21.1°
